Simultaneous Nadir Overpasses (SNOs) Predictions

Prediction of SNOs between AQUA and NOAA-19 Satellite Orbit:

Table of predicted SNOs for the next 14.0 days since TLE Epoch: 9/17/2022
Index Date (AQUA) Time (AQUA) Lat,Lon (AQUA) SZA (AQUA ) Date (NOAA-19) Time (NOAA-19) Lat,Lon (NOAA-19) SZA (NOAA-19 ) Distance(km) Time Diff (sec)
1 09/19/2022 01:53:04 77.25, 137.26 75.98 09/19/2022 01:52:00 77.24, 137.18 75.99 2.04 64
2 09/19/2022 02:42:31 -77.32, -55.37 103.94 09/19/2022 02:43:00 -77.29, -55.35 103.97 3.24 29
3 09/21/2022 07:26:08 -77.12,-125.51 103.32 09/21/2022 07:24:57 -77.04,-126.89 103.32 35.54 71
4 09/21/2022 08:15:38 77.29, 41.48 76.89 09/21/2022 08:15:50 77.30, 41.54 76.89 1.61 12
5 09/23/2022 13:48:44 -77.27, 138.29 102.28 09/23/2022 13:48:42 -77.27, 138.30 102.28 0.16 2
6 09/25/2022 19:21:50 77.24,-124.83 78.54 09/25/2022 19:21:33 77.27,-124.84 78.58 4.16 17
7 09/25/2022 20:11:17 -77.30, 42.56 101.38 09/25/2022 20:12:31 -77.33, 42.71 101.36 5.30 74
8 09/28/2022 00:54:56 -77.25, -28.14 100.59 09/28/2022 00:54:24 -77.24, -28.13 100.60 0.91 32
9 09/28/2022 01:44:23 77.28, 139.36 79.46 09/28/2022 01:45:24 77.27, 139.27 79.45 2.56 61
10 09/30/2022 06:28:02 77.25, 68.59 80.27 09/30/2022 06:27:16 77.24, 68.71 80.26 3.37 46



Historial Predications of SNOs between AQUA and NOAA-19
